Time,TemperatureF,DewpointF,PressureIn,WindDirection,WindDirectionDegrees,WindSpeedMPH,WindSpeedGustMPH,Humidity,HourlyPrecipIn,Conditions,Clouds,dailyrainin,SoftwareType,DateUTC
2013-09-08 00:00:00,60.8,50.7,30.09,NNE,23,1.1,1.1,69,0.00,,,0.00,WUHU216HW,2013-09-08 07:00:00,
2013-09-08 00:05:00,60.7,50.5,30.09,NE,45,1.3,1.3,69,0.00,,,0.00,WUHU216HW,2013-09-08 07:05:00,
2013-09-08 00:10:00,60.3,50.6,30.09,NE,45,1.1,1.8,70,0.00,,,0.00,WUHU216HW,2013-09-08 07:10:00,
2013-09-08 00:15:00,60.3,50.6,30.09,NE,45,1.3,1.8,70,0.00,,,0.00,WUHU216HW,2013-09-08 07:15:00,
2013-09-08 00:20:00,60.1,50.4,30.09,NE,45,1.3,1.3,70,0.00,,,0.00,WUHU216HW,2013-09-08 07:20:00,
2013-09-08 00:25:00,60.1,50.8,30.09,NE,45,1.1,1.3,71,0.00,,,0.00,WUHU216HW,2013-09-08 07:25:00,
2013-09-08 00:30:00,60.1,50.8,30.09,NE,45,1.1,1.3,71,0.00,,,0.00,WUHU216HW,2013-09-08 07:30:00,
2013-09-08 00:35:00,59.8,50.8,30.09,NE,45,1.1,1.1,72,0.00,,,0.00,WUHU216HW,2013-09-08 07:35:00,
2013-09-08 00:40:00,59.6,50.6,30.09,ENE,68,1.3,1.3,72,0.00,,,0.00,WUHU216HW,2013-09-08 07:40:00,
2013-09-08 00:45:00,59.6,50.6,30.09,ENE,68,1.3,1.3,72,0.00,,,0.00,WUHU216HW,2013-09-08 07:45:00,
2013-09-08 00:50:00,59.6,50.6,30.09,ENE,68,1.3,1.3,72,0.00,,,0.00,WUHU216HW,2013-09-08 07:50:00,
2013-09-08 00:59:00,59.4,50.0,30.09,ENE,68,0.0,0.0,71,0.00,,,0.00,WUHU216HW,2013-09-08 07:59:00,
2013-09-08 01:04:00,59.2,49.9,30.09,ENE,68,0.7,0.7,71,0.00,,,0.00,WUHU216HW,2013-09-08 08:04:00,
2013-09-08 01:09:00,58.9,49.9,30.09,ENE,68,0.0,0.7,72,0.00,,,0.00,WUHU216HW,2013-09-08 08:09:00,
2013-09-08 01:14:00,58.5,50.2,30.09,ENE,68,0.7,0.7,74,0.00,,,0.00,WUHU216HW,2013-09-08 08:14:00,
2013-09-08 01:19:00,58.1,50.2,30.09,ENE,68,0.7,0.7,75,0.00,,,0.00,WUHU216HW,2013-09-08 08:19:00,
2013-09-08 01:24:00,58.0,49.7,30.10,ENE,68,0.0,0.7,74,0.00,,,0.00,WUHU216HW,2013-09-08 08:24:00,
2013-09-08 01:29:00,57.8,49.1,30.09,ENE,68,0.7,0.7,73,0.00,,,0.00,WUHU216HW,2013-09-08 08:29:00,
2013-09-08 01:34:00,57.2,49.3,30.10,ENE,68,0.7,0.7,75,0.00,,,0.00,WUHU216HW,2013-09-08 08:34:00,
2013-09-08 01:39:00,56.9,49.3,30.10,ENE,68,0.7,0.7,76,0.00,,,0.00,WUHU216HW,2013-09-08 08:39:00,
2013-09-08 01:44:00,56.7,49.9,30.10,ENE,68,0.7,0.7,78,0.00,,,0.00,WUHU216HW,2013-09-08 08:44:00,
2013-09-08 01:49:00,56.5,49.7,30.09,ENE,68,0.0,0.7,78,0.00,,,0.00,WUHU216HW,2013-09-08 08:49:00,
2013-09-08 01:54:00,56.5,49.3,30.10,ENE,68,0.0,0.7,77,0.00,,,0.00,WUHU216HW,2013-09-08 08:54:00,
2013-09-08 01:59:00,56.3,49.9,30.10,ENE,68,0.0,0.4,79,0.00,,,0.00,WUHU216HW,2013-09-08 08:59:00,
2013-09-08 02:04:00,56.2,49.7,30.10,ENE,68,0.7,0.7,79,0.00,,,0.00,WUHU216HW,2013-09-08 09:04:00,
2013-09-08 02:09:00,56.2,49.7,30.10,ENE,68,0.7,0.7,79,0.00,,,0.00,WUHU216HW,2013-09-08 09:09:00,
2013-09-08 02:14:00,56.2,49.7,30.10,ENE,68,0.7,0.7,79,0.00,,,0.00,WUHU216HW,2013-09-08 09:14:00,
2013-09-08 02:19:00,56.2,49.7,30.10,ENE,68,0.7,0.7,79,0.00,,,0.00,WUHU216HW,2013-09-08 09:19:00,
2013-09-08 02:24:00,55.6,49.1,30.09,ENE,68,1.1,1.1,79,0.00,,,0.00,WUHU216HW,2013-09-08 09:24:00,
2013-09-08 02:29:00,55.3,48.8,30.10,ENE,68,0.7,1.1,79,0.00,,,0.00,WUHU216HW,2013-09-08 09:29:00,
2013-09-08 02:34:00,55.3,48.5,30.10,ENE,68,0.0,1.1,78,0.00,,,0.00,WUHU216HW,2013-09-08 09:34:00,
2013-09-08 02:39:00,55.1,48.3,30.10,ENE,68,0.0,0.7,78,0.00,,,0.00,WUHU216HW,2013-09-08 09:39:00,
2013-09-08 02:44:00,55.1,48.3,30.10,ENE,68,0.0,0.0,78,0.00,,,0.00,WUHU216HW,2013-09-08 09:44:00,
2013-09-08 02:49:00,55.1,48.3,30.10,ENE,68,0.0,0.0,78,0.00,,,0.00,WUHU216HW,2013-09-08 09:49:00,
2013-09-08 04:01:00,53.3,48.0,30.10,ENE,68,0.0,0.0,82,0.00,,,0.00,WUHU216HW,2013-09-08 11:01:00,
2013-09-08 04:06:00,53.3,48.0,30.10,ENE,68,0.0,0.0,82,0.00,,,0.00,WUHU216HW,2013-09-08 11:06:00,
2013-09-08 04:11:00,53.3,48.0,30.10,ENE,68,0.0,0.0,82,0.00,,,0.00,WUHU216HW,2013-09-08 11:11:00,
2013-09-08 04:16:00,53.3,48.0,30.10,ENE,68,0.0,0.0,82,0.00,,,0.00,WUHU216HW,2013-09-08 11:16:00,
2013-09-08 04:23:00,52.0,47.0,30.10,ENE,68,0.9,1.1,83,0.00,,,0.00,WUHU216HW,2013-09-08 11:23:00,
2013-09-08 04:28:00,51.8,47.2,30.11,ENE,68,0.4,1.1,84,0.00,,,0.00,WUHU216HW,2013-09-08 11:28:00,
2013-09-08 04:33:00,51.8,47.2,30.11,ENE,68,0.4,0.9,84,0.00,,,0.00,WUHU216HW,2013-09-08 11:33:00,
2013-09-08 04:38:00,51.8,47.2,30.11,ENE,68,0.4,0.4,84,0.00,,,0.00,WUHU216HW,2013-09-08 11:38:00,
2013-09-08 04:49:00,51.3,47.2,30.11,ENE,68,0.0,0.0,86,0.00,,,0.00,WUHU216HW,2013-09-08 11:49:00,
2013-09-08 04:54:00,51.3,46.9,30.10,ENE,68,0.0,0.0,85,0.00,,,0.00,WUHU216HW,2013-09-08 11:54:00,
2013-09-08 04:59:00,51.3,46.9,30.11,ENE,68,0.0,0.0,85,0.00,,,0.00,WUHU216HW,2013-09-08 11:59:00,
2013-09-08 05:04:00,51.3,46.9,30.10,ENE,68,0.0,0.0,85,0.00,,,0.00,WUHU216HW,2013-09-08 12:04:00,
2013-09-08 05:09:00,51.3,46.9,30.10,ENE,68,0.0,0.0,85,0.00,,,0.00,WUHU216HW,2013-09-08 12:09:00,
2013-09-08 07:23:00,49.1,46.1,30.12,ENE,68,2.0,2.0,89,0.00,,,0.00,WUHU216HW,2013-09-08 14:23:00,
2013-09-08 07:28:00,49.1,46.1,30.12,ENE,68,2.0,2.0,89,0.00,,,0.00,WUHU216HW,2013-09-08 14:28:00,
2013-09-08 07:33:00,49.1,46.1,30.12,ENE,68,2.0,2.0,89,0.00,,,0.00,WUHU216HW,2013-09-08 14:33:00,
2013-09-08 07:38:00,49.1,46.1,30.12,ENE,68,2.0,2.0,89,0.00,,,0.00,WUHU216HW,2013-09-08 14:38:00,
2013-09-08 09:50:00,62.5,52.2,30.14,North,0,3.4,4.5,69,0.00,,,0.00,WUHU216HW,2013-09-08 16:50:00,
2013-09-08 09:55:00,62.6,52.3,30.14,North,0,4.7,4.7,69,0.00,,,0.00,WUHU216HW,2013-09-08 16:55:00,
2013-09-08 10:00:00,62.6,52.3,30.14,North,0,4.7,4.7,69,0.00,,,0.00,WUHU216HW,2013-09-08 17:00:00,
2013-09-08 10:05:00,62.6,52.3,30.14,North,0,4.7,4.7,69,0.00,,,0.00,WUHU216HW,2013-09-08 17:05:00,
2013-09-08 10:10:00,62.6,52.3,30.14,North,0,4.7,4.7,69,0.00,,,0.00,WUHU216HW,2013-09-08 17:10:00,
2013-09-08 10:15:00,64.3,52.7,30.14,ENE,68,4.5,5.4,66,0.00,,,0.00,WUHU216HW,2013-09-08 17:15:00,
2013-09-08 10:20:00,64.1,52.0,30.14,North,0,5.4,5.4,65,0.00,,,0.00,WUHU216HW,2013-09-08 17:20:00,
2013-09-08 10:25:00,63.7,52.1,30.14,NNW,338,4.7,5.4,66,0.00,,,0.00,WUHU216HW,2013-09-08 17:25:00,
2013-09-08 10:30:00,64.1,52.9,30.14,NNE,23,4.0,5.4,67,0.00,,,0.00,WUHU216HW,2013-09-08 17:30:00,
2013-09-08 10:35:00,65.0,52.9,30.14,NE,45,3.6,4.7,65,0.00,,,0.00,WUHU216HW,2013-09-08 17:35:00,
2013-09-08 10:40:00,65.2,53.1,30.14,North,0,3.1,4.0,65,0.00,,,0.00,WUHU216HW,2013-09-08 17:40:00,
2013-09-08 10:45:00,65.3,52.8,30.14,North,0,4.0,4.0,64,0.00,,,0.00,WUHU216HW,2013-09-08 17:45:00,
2013-09-08 10:50:00,65.5,52.6,30.13,North,0,4.7,4.7,63,0.00,,,0.00,WUHU216HW,2013-09-08 17:50:00,
2013-09-08 10:55:00,66.2,52.5,30.14,WNW,293,2.0,4.7,61,0.00,,,0.00,WUHU216HW,2013-09-08 17:55:00,
2013-09-08 11:00:00,66.6,52.7,30.13,North,0,3.4,3.4,61,0.00,,,0.00,WUHU216HW,2013-09-08 18:00:00,
2013-09-08 11:05:00,66.8,52.5,30.14,NNE,23,3.1,3.4,60,0.00,,,0.00,WUHU216HW,2013-09-08 18:05:00,
2013-09-08 11:10:00,67.3,52.5,30.13,North,0,4.0,4.0,59,0.00,,,0.00,WUHU216HW,2013-09-08 18:10:00,
2013-09-08 11:15:00,67.3,52.5,30.13,WNW,293,2.9,4.0,59,0.00,,,0.00,WUHU216HW,2013-09-08 18:15:00,
2013-09-08 11:20:00,67.5,52.2,30.13,North,0,5.4,5.4,58,0.00,,,0.00,WUHU216HW,2013-09-08 18:20:00,
2013-09-08 11:26:00,68.4,52.6,30.13,NE,45,6.3,7.8,57,0.00,,,0.00,WUHU216HW,2013-09-08 18:26:00,
2013-09-08 11:31:00,68.6,52.2,30.13,North,0,4.7,7.8,56,0.11,,,0.10,WUHU216HW,2013-09-08 18:31:00,
2013-09-08 11:36:00,68.9,52.0,30.14,North,0,6.5,6.5,55,0.11,,,0.10,WUHU216HW,2013-09-08 18:36:00,
2013-09-08 11:41:00,68.9,51.6,30.13,NNW,338,7.2,7.2,54,0.11,,,0.10,WUHU216HW,2013-09-08 18:41:00,
2013-09-08 11:46:00,68.4,52.6,30.13,North,0,1.6,7.2,57,0.11,,,0.10,WUHU216HW,2013-09-08 18:46:00,
2013-09-08 11:51:00,69.3,51.9,30.13,East,90,5.4,7.2,54,0.11,,,0.10,WUHU216HW,2013-09-08 18:51:00,
2013-09-08 11:56:00,69.7,52.7,30.14,North,0,4.0,5.4,55,0.11,,,0.10,WUHU216HW,2013-09-08 18:56:00,
2013-09-08 12:01:00,70.4,51.9,30.13,North,0,4.5,5.4,52,0.11,,,0.10,WUHU216HW,2013-09-08 19:01:00,
2013-09-08 12:06:00,70.6,52.0,30.13,North,0,4.0,4.5,52,0.11,,,0.10,WUHU216HW,2013-09-08 19:06:00,
2013-09-08 12:11:00,70.7,52.2,30.13,NNE,23,3.8,4.5,52,0.11,,,0.10,WUHU216HW,2013-09-08 19:11:00,
2013-09-08 12:18:00,70.6,52.0,30.13,North,0,3.4,4.0,52,0.11,,,0.10,WUHU216HW,2013-09-08 19:18:00,
2013-09-08 12:31:00,70.7,52.2,30.13,North,0,4.5,4.5,52,0.11,,,0.10,WUHU216HW,2013-09-08 19:31:00,
2013-09-08 12:36:00,71.5,51.8,30.13,North,0,5.6,7.2,50,0.00,,,0.10,WUHU216HW,2013-09-08 19:36:00,
2013-09-08 12:41:00,71.1,52.6,30.13,NE,45,7.6,7.6,52,0.00,,,0.10,WUHU216HW,2013-09-08 19:41:00,
2013-09-08 12:46:00,71.6,52.0,30.13,NNW,338,4.5,7.6,50,0.00,,,0.10,WUHU216HW,2013-09-08 19:46:00,
2013-09-08 12:51:00,71.8,52.2,30.13,NE,45,2.5,7.6,50,0.00,,,0.10,WUHU216HW,2013-09-08 19:51:00,
2013-09-08 12:56:00,72.2,51.9,30.13,North,0,11.6,11.6,49,0.00,,,0.10,WUHU216HW,2013-09-08 19:56:00,
2013-09-08 13:01:00,72.4,51.5,30.13,NNE,23,4.9,11.6,48,0.00,,,0.10,WUHU216HW,2013-09-08 20:01:00,
2013-09-08 13:06:00,72.0,51.8,30.12,NE,45,3.1,11.6,49,0.00,,,0.10,WUHU216HW,2013-09-08 20:06:00,
2013-09-08 13:11:00,72.0,51.8,30.12,East,90,8.7,8.7,49,0.00,,,0.10,WUHU216HW,2013-09-08 20:11:00,
2013-09-08 13:16:00,72.4,51.5,30.12,North,0,4.9,8.7,48,0.00,,,0.10,WUHU216HW,2013-09-08 20:16:00,
2013-09-08 13:21:00,72.7,51.2,30.12,North,0,5.6,8.7,47,0.00,,,0.10,WUHU216HW,2013-09-08 20:21:00,
2013-09-08 13:26:00,73.1,51.6,30.12,East,90,4.3,7.6,47,0.00,,,0.10,WUHU216HW,2013-09-08 20:26:00,
2013-09-08 13:31:00,73.8,52.2,30.12,NNE,23,7.6,7.6,47,0.00,,,0.10,WUHU216HW,2013-09-08 20:31:00,
2013-09-08 13:36:00,73.8,51.6,30.12,North,0,4.7,7.6,46,0.00,,,0.10,WUHU216HW,2013-09-08 20:36:00,
2013-09-08 13:41:00,73.6,52.0,30.12,NE,45,8.3,8.3,47,0.00,,,0.10,WUHU216HW,2013-09-08 20:41:00,
2013-09-08 13:46:00,73.4,51.8,30.12,NE,45,6.0,8.3,47,0.00,,,0.10,WUHU216HW,2013-09-08 20:46:00,
2013-09-08 13:51:00,74.0,52.4,30.12,WNW,293,4.5,8.3,47,0.00,,,0.10,WUHU216HW,2013-09-08 20:51:00,
2013-09-08 13:56:00,73.8,51.0,30.12,North,0,7.6,7.6,45,0.00,,,0.10,WUHU216HW,2013-09-08 20:56:00,
2013-09-08 14:01:00,73.8,51.6,30.12,North,0,3.4,7.6,46,0.00,,,0.10,WUHU216HW,2013-09-08 21:01:00,
2013-09-08 14:06:00,74.2,51.4,30.12,North,0,9.4,9.4,45,0.00,,,0.10,WUHU216HW,2013-09-08 21:06:00,
2013-09-08 14:11:00,74.0,51.8,30.12,WNW,293,4.0,9.4,46,0.00,,,0.10,WUHU216HW,2013-09-08 21:11:00,
2013-09-08 14:17:00,74.0,51.2,30.12,North,0,5.4,9.4,45,0.00,,,0.10,WUHU216HW,2013-09-08 21:17:00,
2013-09-08 14:22:00,74.2,51.9,30.11,NNE,23,1.6,7.4,46,0.00,,,0.10,WUHU216HW,2013-09-08 21:22:00,
2013-09-08 14:27:00,74.3,51.6,30.11,NW,315,6.7,6.7,45,0.00,,,0.10,WUHU216HW,2013-09-08 21:27:00,
2013-09-08 14:32:00,74.5,51.7,30.11,NW,315,3.1,6.7,45,0.00,,,0.10,WUHU216HW,2013-09-08 21:32:00,
2013-09-08 14:37:00,74.7,50.7,30.11,North,0,4.9,7.4,43,0.00,,,0.10,WUHU216HW,2013-09-08 21:37:00,
2013-09-08 14:42:00,74.5,51.1,30.11,North,0,4.9,7.4,44,0.00,,,0.10,WUHU216HW,2013-09-08 21:42:00,
2013-09-08 14:47:00,74.9,51.4,30.11,NNE,23,7.6,7.6,44,0.00,,,0.10,WUHU216HW,2013-09-08 21:47:00,
2013-09-08 14:52:00,75.2,50.6,30.11,NE,45,2.9,9.2,42,0.00,,,0.10,WUHU216HW,2013-09-08 21:52:00,
2013-09-08 14:57:00,75.1,49.8,30.11,North,0,4.0,9.2,41,0.00,,,0.10,WUHU216HW,2013-09-08 21:57:00,
2013-09-08 15:02:00,75.4,50.1,30.11,WNW,293,3.4,4.0,41,0.00,,,0.10,WUHU216HW,2013-09-08 22:02:00,
2013-09-08 15:07:00,76.0,51.2,30.11,NNE,23,6.7,6.7,42,0.00,,,0.10,WUHU216HW,2013-09-08 22:07:00,
2013-09-08 15:12:00,76.1,50.1,30.11,NNE,23,6.9,6.9,40,0.00,,,0.10,WUHU216HW,2013-09-08 22:12:00,
2013-09-08 15:17:00,76.0,47.7,30.10,North,0,7.6,7.6,37,0.00,,,0.10,WUHU216HW,2013-09-08 22:17:00,
2013-09-08 15:22:00,76.1,50.1,30.10,North,0,6.0,7.6,40,0.00,,,0.10,WUHU216HW,2013-09-08 22:22:00,
2013-09-08 15:27:00,76.3,51.0,30.10,NNE,23,6.3,7.6,41,0.00,,,0.10,WUHU216HW,2013-09-08 22:27:00,
2013-09-08 15:32:00,76.5,50.5,30.10,NNE,23,7.2,7.2,40,0.00,,,0.10,WUHU216HW,2013-09-08 22:32:00,
2013-09-08 15:37:00,76.0,50.0,30.10,North,0,4.7,7.2,40,0.00,,,0.10,WUHU216HW,2013-09-08 22:37:00,
2013-09-08 15:42:00,75.6,49.7,30.10,North,0,3.4,7.2,40,0.00,,,0.10,WUHU216HW,2013-09-08 22:42:00,
2013-09-08 15:47:00,76.7,49.9,30.10,North,0,5.6,5.6,39,0.00,,,0.10,WUHU216HW,2013-09-08 22:47:00,
2013-09-08 15:52:00,76.7,49.9,30.10,North,0,5.6,5.6,39,0.00,,,0.10,WUHU216HW,2013-09-08 22:52:00,
2013-09-08 15:57:00,76.7,49.9,30.10,North,0,5.6,5.6,39,0.00,,,0.10,WUHU216HW,2013-09-08 22:57:00,
2013-09-08 16:02:00,76.7,49.9,30.10,North,0,5.6,5.6,39,0.00,,,0.10,WUHU216HW,2013-09-08 23:02:00,
2013-09-08 16:07:00,76.7,49.2,30.09,North,0,5.8,10.5,38,0.00,,,0.10,WUHU216HW,2013-09-08 23:07:00,
2013-09-08 16:12:00,76.7,49.9,30.09,NNE,23,10.1,10.5,39,0.00,,,0.10,WUHU216HW,2013-09-08 23:12:00,
2013-09-08 16:17:00,77.0,50.2,30.09,ENE,68,7.6,10.1,39,0.00,,,0.10,WUHU216HW,2013-09-08 23:17:00,
2013-09-08 16:22:00,77.4,49.8,30.09,NE,45,11.0,11.0,38,0.00,,,0.10,WUHU216HW,2013-09-08 23:22:00,
2013-09-08 16:27:00,77.0,49.4,30.09,NE,45,5.1,11.0,38,0.00,,,0.10,WUHU216HW,2013-09-08 23:27:00,
2013-09-08 16:32:00,77.4,50.5,30.09,NE,45,10.3,10.3,39,0.00,,,0.10,WUHU216HW,2013-09-08 23:32:00,
2013-09-08 16:37:00,77.4,49.8,30.09,NNW,338,8.1,10.3,38,0.00,,,0.10,WUHU216HW,2013-09-08 23:37:00,
2013-09-08 16:42:00,77.8,50.9,30.08,North,0,7.4,10.3,39,0.00,,,0.10,WUHU216HW,2013-09-08 23:42:00,
2013-09-08 16:47:00,77.6,50.7,30.08,NNE,23,5.1,8.1,39,0.00,,,0.10,WUHU216HW,2013-09-08 23:47:00,
2013-09-08 16:52:00,77.4,50.5,30.08,North,0,4.7,7.4,39,0.00,,,0.10,WUHU216HW,2013-09-08 23:52:00,
2013-09-08 16:57:00,77.0,50.2,30.08,North,0,7.2,7.2,39,0.00,,,0.10,WUHU216HW,2013-09-08 23:57:00,
2013-09-08 17:02:00,77.9,51.0,30.08,North,0,11.4,11.4,39,0.00,,,0.10,WUHU216HW,2013-09-09 00:02:00,
2013-09-08 17:07:00,77.4,50.5,30.08,North,0,9.2,11.4,39,0.00,,,0.10,WUHU216HW,2013-09-09 00:07:00,
2013-09-08 17:12:00,77.4,50.5,30.08,North,0,6.0,11.4,39,0.00,,,0.10,WUHU216HW,2013-09-09 00:12:00,
2013-09-08 17:17:00,77.4,50.5,30.08,NE,45,9.8,9.8,39,0.00,,,0.10,WUHU216HW,2013-09-09 00:17:00,
2013-09-08 17:22:00,77.4,50.5,30.08,NNE,23,6.3,9.8,39,0.00,,,0.10,WUHU216HW,2013-09-09 00:22:00,
2013-09-08 17:27:00,77.4,50.5,30.08,North,0,6.3,9.8,39,0.00,,,0.10,WUHU216HW,2013-09-09 00:27:00,
2013-09-08 17:32:00,77.2,50.3,30.08,North,0,6.9,6.9,39,0.00,,,0.10,WUHU216HW,2013-09-09 00:32:00,
2013-09-08 17:37:00,77.8,50.9,30.08,NE,45,8.7,8.7,39,0.00,,,0.10,WUHU216HW,2013-09-09 00:37:00,
2013-09-08 17:42:00,77.8,50.0,30.08,NE,45,9.4,9.4,38,0.00,,,0.10,WUHU216HW,2013-09-09 00:42:00,
2013-09-08 17:47:00,77.8,50.0,30.08,NE,45,8.7,9.4,38,0.00,,,0.10,WUHU216HW,2013-09-09 00:47:00,
2013-09-08 17:52:00,77.6,49.1,30.08,North,0,7.8,9.4,37,0.00,,,0.10,WUHU216HW,2013-09-09 00:52:00,
2013-09-08 17:57:00,77.0,48.7,30.08,North,0,6.0,8.7,37,0.00,,,0.10,WUHU216HW,2013-09-09 00:57:00,
2013-09-08 18:02:00,77.0,48.7,30.08,NNE,23,9.2,9.2,37,0.00,,,0.10,WUHU216HW,2013-09-09 01:02:00,
2013-09-08 18:07:00,77.0,47.2,30.08,North,0,4.5,9.2,35,0.00,,,0.10,WUHU216HW,2013-09-09 01:07:00,
2013-09-08 18:12:00,77.2,47.4,30.08,North,0,3.6,9.2,35,0.00,,,0.10,WUHU216HW,2013-09-09 01:12:00,
2013-09-08 18:17:00,77.0,47.9,30.08,NE,45,8.5,8.5,36,0.00,,,0.10,WUHU216HW,2013-09-09 01:17:00,
2013-09-08 18:22:00,77.0,48.7,30.08,North,0,4.3,8.5,37,0.00,,,0.10,WUHU216HW,2013-09-09 01:22:00,
2013-09-08 18:27:00,77.2,48.9,30.08,North,0,2.2,8.5,37,0.00,,,0.10,WUHU216HW,2013-09-09 01:27:00,
2013-09-08 18:32:00,77.0,48.7,30.08,NNE,23,5.4,6.9,37,0.00,,,0.10,WUHU216HW,2013-09-09 01:32:00,
2013-09-08 18:37:00,76.9,48.5,30.08,NE,45,5.4,5.4,37,0.00,,,0.10,WUHU216HW,2013-09-09 01:37:00,
2013-09-08 18:42:00,76.7,48.3,30.08,NNE,23,3.4,5.4,37,0.00,,,0.10,WUHU216HW,2013-09-09 01:42:00,
2013-09-08 18:47:00,76.3,48.1,30.08,North,0,6.3,6.3,37,0.00,,,0.10,WUHU216HW,2013-09-09 01:47:00,
2013-09-08 18:52:00,76.1,47.9,30.08,NNE,23,3.4,6.3,37,0.00,,,0.10,WUHU216HW,2013-09-09 01:52:00,
2013-09-08 18:57:00,75.8,47.5,30.08,ENE,68,2.9,6.3,37,0.00,,,0.10,WUHU216HW,2013-09-09 01:57:00,
2013-09-08 19:02:00,75.8,47.5,30.08,NE,45,3.6,3.6,37,0.00,,,0.10,WUHU216HW,2013-09-09 02:02:00,
2013-09-08 19:07:00,76.0,47.7,30.08,NNE,23,5.1,5.8,37,0.00,,,0.10,WUHU216HW,2013-09-09 02:07:00,
2013-09-08 19:12:00,76.0,47.7,30.08,NNE,23,7.6,7.6,37,0.00,,,0.10,WUHU216HW,2013-09-09 02:12:00,
2013-09-08 19:17:00,75.8,47.5,30.08,NNE,23,3.6,7.6,37,0.00,,,0.10,WUHU216HW,2013-09-09 02:17:00,
2013-09-08 19:22:00,75.4,47.3,30.08,North,0,5.4,7.6,37,0.00,,,0.10,WUHU216HW,2013-09-09 02:22:00,
2013-09-08 19:27:00,73.3,47.5,30.08,NNE,23,2.5,5.4,40,0.00,,,0.10,WUHU216HW,2013-09-09 02:27:00,
2013-09-08 19:32:00,72.7,47.6,30.08,North,0,2.5,5.4,41,0.00,,,0.10,WUHU216HW,2013-09-09 02:32:00,
2013-09-08 19:37:00,72.5,47.5,30.08,NE,45,2.0,2.5,41,0.00,,,0.10,WUHU216HW,2013-09-09 02:37:00,
2013-09-08 19:42:00,72.5,47.5,30.08,NE,45,2.0,2.5,41,0.00,,,0.10,WUHU216HW,2013-09-09 02:42:00,
2013-09-08 19:47:00,72.5,47.5,30.08,NE,45,2.0,2.0,41,0.00,,,0.10,WUHU216HW,2013-09-09 02:47:00,
2013-09-08 19:57:00,70.0,48.2,30.09,NE,45,1.1,1.1,46,0.00,,,0.10,WUHU216HW,2013-09-09 02:57:00,
2013-09-08 20:02:00,70.0,48.2,30.09,NE,45,1.1,1.1,46,0.00,,,0.10,WUHU216HW,2013-09-09 03:02:00,
2013-09-08 20:07:00,70.0,48.2,30.09,NE,45,1.1,1.1,46,0.00,,,0.10,WUHU216HW,2013-09-09 03:07:00,
2013-09-08 20:12:00,70.0,48.2,30.09,NE,45,1.1,1.1,46,0.00,,,0.10,WUHU216HW,2013-09-09 03:12:00,